Regional Weather Roundup
Issued by NWS

Home | Current Version | Previous Version | Graphics & Text | Print | Product List | Glossary On
Versions: 1 2 3 4 5 6 7 8 9 10 11 12 13 14 15 16 17 18 19 20 21 22 23 24 25 26 27 28 29 30 31 32 33 34 35 36 37 38 39 40 41 42 43 44 45 46 47 48 49 50
841
ASUS45 KBOU 241707
RWRCO

WEATHER ROUNDUP FOR COLORADO
NATIONAL WEATHER SERVICE DENVER/BOULDER CO
1100 AM MDT MON JUL 24 2017

NOTE: "FAIR" INDICATES FEW OR NO CLOUDS BELOW 12000 FEET WITH NO
SIGNIFICANT WEATHER AND/OR OBSTRUCTIONS TO VISIBILITY.

COZ001>005-013-030-031-241800-
...NORTHWEST COLORADO...

CITY           SKY/WX    TMP DP  RH WIND       PRES   REMARKS
CRAIG          FAIR      82  42  24 N5        30.20F
HAYDEN         FAIR      77  41  27 NW8       30.24S
MEEKER         FAIR      81  46  29 VRB3      30.22F
RABBIT EARS PA FAIR      63  43  48 W8        30.55S
STEAMBOAT SPGS FAIR      77  44  31 CALM      30.26S
WALDEN         FAIR      75  36  23 S6        30.36S
$$

COZ006>008-011-241800-
...WEST CENTRAL VALLEYS...

CITY           SKY/WX    TMP DP  RH WIND       PRES   REMARKS
GRAND JUNCTION FAIR      86  49  27 SE5       30.11F
MONTROSE       FAIR      80  50  34 NW5       30.20F
EAGLE          SUNNY     73  45  35 CALM      30.27F
RIFLE          FAIR      81  47  30 NW5       30.17F
DELTA          FAIR      86  47  25 CALM      30.16F
NUCLA          NOT AVBL
$$

COZ017>023-064>068-241800-
...SOUTHWEST COLORADO...

CITY           SKY/WX    TMP DP  RH WIND       PRES   REMARKS
DURANGO        FAIR      75  51  43 CALM      30.28F
CORTEZ         FAIR      79  54  41 CALM      30.22F
PAGOSA SPRINGS FAIR      74  46  36 CALM      30.35
TELLURIDE      FAIR      68  47  47 W7        30.46S
WOLF CREEK PAS PTSUNNY   55  45  67 S8        30.70S
$$

COZ009-010-012-014-032>034-037-058>063-241800-
...CENTRAL COLORADO...

CITY           SKY/WX    TMP DP  RH WIND       PRES   REMARKS
ASPEN          FAIR      78  45  30 NE10      30.31F
BUENA VISTA    FAIR      73  43  34 SE7       30.34F
COPPER MTN     FAIR      63  37  39 NW13      30.66F
BERTHOUD PASS  FAIR      54  39  58 NE5       30.70S
COTTONWOOD PAS FAIR      72  41  33 SE6       30.49S
GUNNISON       FAIR      69  47  45 VRB3      30.36F
KREMMLING      FAIR      81  43  26 S3        30.31F
LEADVILLE      FAIR      67  35  30 W3        30.47F
MONARCH PASS   FAIR      55  41  58 W10       30.77S
SALIDA         FAIR      76  47  36 N5        30.37F
SUNLIGHT       FAIR      61  41  48 W7        30.60S
WILKERSON PASS FAIR      63  39  42 CALM      30.62S
$$

COZ069>075-241800-
...SAN LUIS VALLEY/SANGRE DE CRISTO MOUNTAINS...

CITY           SKY/WX    TMP DP  RH WIND       PRES   REMARKS
ALAMOSA        FAIR      72  50  45 E5        30.33F
DEL NORTE      FAIR      72  49  44 E7        30.37F
LA VETA PASS   NOT AVBL
SAGUACHE         N/A    N/A N/A N/A MISG        N/A
$$

COZ035-036-038>040-241800-
...NORTHERN COLORADO FRONT RANGE...

CITY           SKY/WX    TMP DP  RH WIND       PRES   REMARKS
DENVER INTL AP FAIR      88  44  21 NW6       30.08F
DMNS CITY PARK   N/A     89  46  22 NE6       30.07F
AURORA         MOSUNNY   86  45  23 NW5       30.11F
FRONT RANGE AP FAIR      88  43  20 CALM      30.10F
ERIE MUNI ARPT FAIR      86  40  19 N7        30.06F
BOULDER MUN AP FAIR      86  43  22 NE3       30.07S
CENTENNIAL     FAIR      87  40  19 VRB3      30.12F
BROOMFIELD     MOSUNNY   86  45  23 VRB5      30.11F
FORT COLLINS   FAIR      85  52  32 VRB3      30.06F
LONGMONT       FAIR      88  48  25 NE5       30.07F
$$

COZ041-046-047-076>085-087-088-241800-
...PIKES PEAK/PALMER DIVIDE AND SOUTHERN FOOTHILLS...

CITY           SKY/WX    TMP DP  RH WIND       PRES   REMARKS
COLO. SPRINGS  FAIR      79  57  46 S8        30.19F
A. F. ACADEMY  FAIR      78  54  44 SE9       30.20S
SCHRIEVER AFB  FAIR      77  54  43 S9        30.20F
CHEYENNE MTN   NOT AVBL
ELLICOTT       FAIR     N/A N/A N/A S9        30.17F
FALCON           N/A     77  51  39 SW8G18    30.25S
FORT CARSON    FAIR      76  57  51 CALM      30.16F
LIMON          FAIR      82  55  39 S18G26    30.13F
MONUMENT HILL  FAIR      79  46  31 SW3       30.25S
CANON CITY     SUNNY     86  55  35 W7        30.11F
WALSENBURG     NOT AVBL
TRINIDAD       FAIR      84  44  24 CALM      30.17F
$$

COZ042>045-048>051-090-091-241800-
...NORTHEAST COLORADO...

CITY           SKY/WX    TMP DP  RH WIND       PRES   REMARKS
GREELEY ARPT   FAIR      81  59  47 CALM      30.05F
AKRON          FAIR      88  54  31 S18G25    30.06F
BURLINGTON     FAIR      87  62  43 S16       30.08F
WRAY           NOT AVBL
YUMA           FAIR      86  50  28 S16G22    30.03F
STERLING       FAIR      91  59  33 S14       29.98F
HOLYOKE        FAIR      91  63  38 S16G23    30.01F
FORT MORGAN    FAIR      91  50  24 S9G21     30.04S
$$

COZ086-089-092>099-241800-
...SOUTHEAST COLORADO...

CITY           SKY/WX    TMP DP  RH WIND       PRES   REMARKS
PUEBLO         FAIR      83  56  39 SE6       30.08F
LA JUNTA       FAIR      88  58  36 S6        30.06F
LAMAR          FAIR      90  58  33 S13       30.02F
SPRINGFIELD      N/A     86  60  41 S16       30.10F
$$




USA.gov is the U.S. government's official web portal to all federal, state and local government web resources and services.